TimeCST,TemperatureF,Dew PointF,Humidity,Sea Level PressureIn,VisibilityMPH,Wind Direction,Wind SpeedMPH,Gust SpeedMPH,PrecipitationIn,Events,Conditions,WindDirDegrees,DateUTC
12:15 AM,44.6,33.8,66,29.89,10.0,ENE,3.5,-,N/A,,Overcast,70,2012-12-25 06:15:00
12:35 AM,44.6,35.6,71,29.89,10.0,NE,4.6,-,N/A,,Overcast,50,2012-12-25 06:35:00
12:55 AM,44.6,33.8,66,29.89,10.0,ENE,6.9,-,N/A,,Overcast,60,2012-12-25 06:55:00
1:15 AM,44.6,33.8,66,29.89,10.0,ENE,6.9,-,N/A,,Overcast,60,2012-12-25 07:15:00
1:35 AM,44.6,33.8,66,29.89,10.0,ENE,6.9,-,N/A,,Mostly Cloudy,60,2012-12-25 07:35:00
1:55 AM,44.6,33.8,66,29.89,10.0,ENE,9.2,-,N/A,,Scattered Clouds,60,2012-12-25 07:55:00
2:15 AM,44.6,32.0,61,29.89,10.0,ENE,8.1,-,N/A,,Mostly Cloudy,60,2012-12-25 08:15:00
2:55 AM,44.6,32.0,61,29.88,10.0,East,6.9,-,N/A,,Mostly Cloudy,80,2012-12-25 08:55:00
3:15 AM,44.6,32.0,61,29.88,10.0,ENE,11.5,-,N/A,,Overcast,70,2012-12-25 09:15:00
3:35 AM,44.6,32.0,61,29.86,10.0,ENE,9.2,-,N/A,,Overcast,60,2012-12-25 09:35:00
3:55 AM,44.6,32.0,61,29.86,10.0,ENE,10.4,-,N/A,,Overcast,70,2012-12-25 09:55:00
4:15 AM,44.6,32.0,61,29.83,10.0,ENE,9.2,-,N/A,Thunderstorm,Overcast,70,2012-12-25 10:15:00
4:35 AM,44.6,32.0,61,29.83,10.0,ENE,10.4,17.3,N/A,Thunderstorm,Overcast,70,2012-12-25 10:35:00
4:55 AM,44.6,32.0,61,29.83,10.0,ENE,9.2,19.6,N/A,,Overcast,60,2012-12-25 10:55:00
5:15 AM,44.6,32.0,61,29.88,10.0,ENE,6.9,-,N/A,Thunderstorm,Overcast,70,2012-12-25 11:15:00
5:35 AM,44.6,32.0,61,29.90,10.0,ENE,6.9,-,N/A,,Overcast,70,2012-12-25 11:35:00
5:55 AM,42.8,33.8,70,29.89,10.0,East,6.9,-,N/A,Rain-Thunderstorm,Light Thunderstorms and Rain,80,2012-12-25 11:55:00
6:15 AM,42.8,35.6,76,29.84,7.0,East,6.9,-,0.01,Rain-Thunderstorm,Light Thunderstorms and Rain,90,2012-12-25 12:15:00
6:35 AM,41.0,35.6,81,29.89,7.0,Calm,Calm,-,0.03,Rain,Light Rain,0,2012-12-25 12:35:00
6:55 AM,41.0,37.4,87,29.90,5.0,NE,4.6,-,0.03,Rain,Rain,50,2012-12-25 12:55:00
7:15 AM,41.0,37.4,87,29.87,7.0,ENE,10.4,-,N/A,Rain,Rain,60,2012-12-25 13:15:00
7:35 AM,39.2,37.4,93,29.87,7.0,ENE,8.1,-,N/A,Rain,Light Rain,60,2012-12-25 13:35:00
7:55 AM,39.2,37.4,93,29.84,5.0,ENE,9.2,-,0.02,Thunderstorm,Overcast,60,2012-12-25 13:55:00
8:15 AM,39.2,37.4,93,29.84,4.0,ENE,4.6,-,0.01,,Overcast,60,2012-12-25 14:15:00
8:35 AM,39.2,35.6,87,29.84,5.0,ENE,11.5,-,0.01,,Overcast,70,2012-12-25 14:35:00
8:55 AM,37.4,35.6,93,29.83,5.0,East,9.2,-,0.01,,Light Drizzle,80,2012-12-25 14:55:00
9:15 AM,37.4,35.6,93,29.83,4.0,East,10.4,-,N/A,Rain,Light Rain,80,2012-12-25 15:15:00
9:55 AM,37.4,35.6,93,29.82,2.5,East,12.7,-,0.02,Rain,Light Rain,80,2012-12-25 15:55:00
10:15 AM,35.6,35.6,100,29.82,3.0,East,11.5,-,N/A,Rain,Light Rain,90,2012-12-25 16:15:00
10:35 AM,35.6,35.6,100,29.80,3.0,East,15.0,20.7,N/A,Rain,Light Rain,80,2012-12-25 16:35:00
10:55 AM,35.6,35.6,100,29.79,2.5,ENE,15.0,19.6,N/A,,Overcast,70,2012-12-25 16:55:00
11:15 AM,35.6,35.6,100,29.76,2.0,ENE,12.7,18.4,N/A,,Overcast,70,2012-12-25 17:15:00
11:55 AM,35.6,35.6,100,29.74,2.5,ENE,13.8,19.6,N/A,Rain,Light Rain,70,2012-12-25 17:55:00
12:15 PM,35.6,35.6,100,29.74,2.5,East,13.8,17.3,N/A,Rain,Light Rain,80,2012-12-25 18:15:00
12:55 PM,35.6,33.8,93,29.73,2.0,Calm,Calm,-,N/A,Thunderstorm,Thunderstorm,0,2012-12-25 18:55:00
1:15 PM,33.8,33.8,100,29.75,2.5,Calm,Calm,-,0.02,Snow,Light Snow,0,2012-12-25 19:15:00
1:35 PM,33.8,33.8,100,29.75,2.0,Calm,Calm,-,0.02,Snow,Light Snow,0,2012-12-25 19:35:00
1:55 PM,33.8,32.0,93,29.74,0.5,Calm,Calm,-,0.02,Snow,Snow,0,2012-12-25 19:55:00
2:15 PM,32.0,32.0,100,29.74,0.2,Calm,Calm,-,N/A,Snow,Snow,0,2012-12-25 20:15:00
2:35 PM,32.0,32.0,100,29.74,0.2,Calm,Calm,-,N/A,Snow,Snow,0,2012-12-25 20:35:00
2:55 PM,32.0,32.0,100,29.76,0.2,Calm,Calm,-,N/A,Snow,Snow,0,2012-12-25 20:55:00
3:35 PM,32.0,32.0,100,29.76,0.5,Calm,Calm,-,0.01,Snow,Snow,0,2012-12-25 21:35:00
3:55 PM,32.0,32.0,100,29.76,0.2,Calm,Calm,-,0.01,Snow,Snow,0,2012-12-25 21:55:00
4:15 PM,32.0,32.0,100,29.76,0.5,Calm,Calm,-,0.02,Snow,Snow,0,2012-12-25 22:15:00
4:35 PM,32.0,32.0,100,29.76,0.5,Calm,Calm,-,0.02,Snow,Snow,0,2012-12-25 22:35:00
4:55 PM,32.0,32.0,100,29.75,0.8,Calm,Calm,-,0.02,Snow,Snow,0,2012-12-25 22:55:00
5:15 PM,32.0,32.0,100,29.74,0.5,Calm,Calm,-,N/A,Snow,Heavy Snow,0,2012-12-25 23:15:00
5:35 PM,32.0,32.0,100,29.75,0.8,Calm,Calm,-,N/A,Snow,Snow,0,2012-12-25 23:35:00
5:55 PM,32.0,32.0,100,29.76,1.0,Calm,Calm,-,0.01,Snow,Snow,0,2012-12-25 23:55:00
6:15 PM,32.0,32.0,100,29.77,1.0,Calm,Calm,-,N/A,Snow,Snow,0,2012-12-26 00:15:00
6:35 PM,32.0,32.0,100,29.78,1.0,Calm,Calm,-,N/A,Snow,Snow,0,2012-12-26 00:35:00
6:55 PM,32.0,32.0,100,29.79,1.0,Calm,Calm,-,N/A,Snow,Snow,0,2012-12-26 00:55:00
7:15 PM,32.0,32.0,100,29.80,1.2,Calm,Calm,-,N/A,Snow,Light Snow,0,2012-12-26 01:15:00
7:35 PM,32.0,32.0,100,29.81,1.5,Calm,Calm,-,N/A,Snow,Light Snow,0,2012-12-26 01:35:00
7:55 PM,32.0,32.0,100,29.82,1.0,Calm,Calm,-,0.02,Snow,Snow,0,2012-12-26 01:55:00
8:15 PM,32.0,32.0,100,29.82,1.5,Calm,Calm,-,N/A,Snow,Light Snow,0,2012-12-26 02:15:00
8:35 PM,32.0,32.0,100,29.84,1.5,Calm,Calm,-,0.01,Snow,Light Snow,0,2012-12-26 02:35:00
8:55 PM,32.0,32.0,100,29.85,1.5,Calm,Calm,-,0.03,Snow,Light Snow,0,2012-12-26 02:55:00
9:15 PM,32.0,32.0,100,29.86,2.0,Calm,Calm,-,0.01,Snow,Light Snow,0,2012-12-26 03:15:00
9:35 PM,32.0,32.0,100,29.86,3.0,Calm,Calm,-,0.01,Snow,Light Snow,0,2012-12-26 03:35:00
10:15 PM,32.0,32.0,100,29.88,2.5,Calm,Calm,-,N/A,Snow,Light Snow,0,2012-12-26 04:15:00
10:35 PM,32.0,32.0,100,29.88,4.0,Calm,Calm,-,0.01,Snow,Light Snow,0,2012-12-26 04:35:00
10:55 PM,32.0,32.0,100,29.89,4.0,Calm,Calm,-,0.01,Snow,Light Snow,0,2012-12-26 04:55:00
11:15 PM,32.0,32.0,100,29.90,7.0,Calm,Calm,-,0.02,,Mostly Cloudy,0,2012-12-26 05:15:00
11:35 PM,32.0,32.0,100,29.91,7.0,Calm,Calm,-,0.02,,Overcast,0,2012-12-26 05:35:00
11:55 PM,32.0,32.0,100,29.91,10.0,Calm,Calm,-,0.03,,Overcast,0,2012-12-26 05:55:00